Temperature
21 21 21 21 20 20 20 20 20 20 20 20 20 20 20 20 20 20 20 20 20 20 20 20 19 19 19 19 19 19 20 19 19 19 19 19 18 18 18 18 18 18 17
22 21 21 21 21 21 21 20 20 20 20 20 20 20 20 20 20 20 20 20 20 20 20 20 20 20 20 20 20 20 20 20 19 19 19 19 19 19 19 19 18 18 18
22 21 21 21 21 21 21 21 21 21 21 21 21 20 20 20 20 20 20 20 20 20 20 20 20 20 20 20 20 20 20 19 19 19 19 19 19 19 19 19 19 19 18
22 22 21 21 21 21 21 21 21 21 21 21 21 20 20 20 20 20 20 20 20 20 20 20 20 20 20 20 20 20 19 19 19 19 19 19 18 18 18 18 18 18 19
22 22 21 21 21 21 21 21 21 21 21 21 20 20 20 20 20 20 20 20 20 20 20 20 20 20 20 20 20 19 19 19 19 19 18 18 18 18 18 18 18 18 18
22 22 22 21 21 21 21 21 21 21 21 21 21 20 20 20 20 20 20 20 20 20 20 19 19 19 19 19 19 19 19 19 19 19 18 18 18 18 18 18 18 18 18
22 22 22 21 21 21 21 21 21 21 21 21 21 20 20 20 20 20 20 20 20 20 20 20 19 19 19 19 19 19 19 19 19 19 18 18 18 18 18 18 18 17 17
23 22 22 21 21 21 21 21 21 21 21 21 20 20 20 20 20 20 20 20 20 20 20 19 19 19 19 19 19 19 19 18 18 18 18 18 18 18 18 18 18 17 17
22 22 22 21 21 21 21 21 21 21 21 20 20 20 20 20 20 20 20 20 20 20 19 19 19 19 19 19 19 19 18 18 18 18 18 18 18 18 18 18 18 17 17
22 22 22 22 21 21 21 21 21 21 20 20 20 20 20 20 20 20 20 20 20 19 19 19 19 19 19 19 19 18 18 18 18 18 18 18 18 18 18 18 18 18 18
22 22 22 22 22 21 21 21 21 21 21 21 20 20 20 20 20 20 20 20 19 19 19 19 19 19 18 18 18 18 18 18 18 18 18 18 18 18 18 18 18 18 18
22 22 22 22 22 22 21 21 21 21 21 21 21 21 21 20 20 20 20 20 19 19 19 19 19 18 18 18 18 18 18 18 18 18 18 18 18 18 18 18 18 18 18
23 23 23 22 22 22 21 21 21 21 21 21 21 21 21 20 20 20 20 20 19 19 19 19 19 18 18 18 18 18 18 18 18 18 18 18 18 18 18 18 18 18 18
23 23 23 22 22 22 21 21 21 21 21 21 21 21 20 20 20 20 20 20 19 19 19 19 18 18 18 18 18 18 18 18 18 18 18 18 18 18 18 18 18 18 18
23 23 22 22 22 22 21 21 21 21 21 21 21 20 20 20 20 20 20 19 19 19 19 19 18 18 18 18 18 18 18 18 18 18 18 18 18 18 18 18 18 18 18
23 23 22 22 22 21 21 21 21 21 20 20 20 20 19 19 19 19 19 19 19 19 19 18 18 18 18 18 18 18 18 18 18 18 18 18 18 18 18 18 18 18 18
23 22 22 21 21 21 21 21 20 20 20 19 19 19 19 19 19 19 19 19 19 19 19 18 18 18 18 18 18 18 18 18 18 18 18 18 18 19 19 19 18 18 18
23 23 22 21 21 21 21 20 20 19 19 19 18 18 18 18 18 18 18 19 19 19 19 18 18 18 18 18 18 18 18 18 18 18 18 18 18 19 19 19 19 19 18
23 23 22 22 21 21 20 20 19 19 19 18 18 18 18 17 17 17 18 18 18 18 18 18 18 18 18 18 18 18 18 18 18 18 18 18 18 19 19 19 19 19 19
23 22 22 22 21 21 20 20 19 19 19 18 18 18 17 17 17 17 17 17 17 17 18 18 18 18 18 18 18 18 18 18 18 18 18 18 18 19 19 19 19 19 19
23 22 22 22 22 21 20 20 20 19 19 18 18 18 17 17 17 17 17 17 17 17 17 17 17 18 18 17 17 17 18 18 18 18 18 18 18 19 19 19 19 19 19
23 23 22 22 22 21 21 20 19 19 19 18 18 17 17 17 17 17 17 17 17 17 17 17 17 17 17 17 17 17 17 17 18 18 18 18 18 18 18 18 18 18 19
23 23 22 22 21 21 20 20 19 19 18 18 17 17 17 16 16 16 16 16 16 17 17 17 17 17 17 17 17 16 16 16 17 17 17 17 17 17 17 17 17 18 18
23 22 22 22 21 21 20 19 19 18 18 17 16 16 16 16 16 16 16 16 16 16 16 16 16 16 16 16 16 16 16 16 16 16 16 17 16 16 16 16 17 17 17
22 22 22 21 21 20 20 19 18 18 17 16 16 16 16 16 16 16 16 16 16 16 16 16 16 16 16 16 16 16 16 15 15 15 15 15 16 16 16 16 16 16 16
22 22 21 21 21 20 20 19 18 17 17 16 16 15 15 15 15 15 15 15 15 15 15 15 15 15 15 15 15 15 15 15 15 15 14 15 15 15 15 15 15 15 16
Wind_Speed
8 12 21 20 19 18 18 17 18 18 19 19 18 18 17 16 14 13 12 11 10 9 8 8 8 8 8 8 9 10 11 11 11 12 12 12 11 11 11 11 11 11 13
13 17 22 21 20 19 18 18 17 18 18 17 17 17 16 15 13 12 11 11 10 9 9 8 7 7 8 8 8 9 9 9 9 10 10 10 10 10 10 10 10 10 12
14 17 21 21 20 20 19 18 17 17 17 17 16 15 15 14 13 12 11 10 9 9 9 8 8 7 7 7 7 8 8 8 8 8 8 6 7 7 9 10 11 11 12
14 16 18 21 20 19 19 18 17 17 17 16 15 14 13 12 11 11 10 9 8 8 8 8 8 7 7 7 7 7 7 7 6 6 5 4 4 6 7 10 11 12 12
12 15 18 22 20 19 19 18 17 17 16 15 14 13 12 11 11 10 9 8 8 8 8 8 8 8 7 7 7 7 7 6 6 5 4 4 4 5 7 10 11 12 12
12 15 18 22 21 20 19 18 18 17 16 15 14 13 12 11 10 10 9 9 8 8 8 8 8 8 8 8 8 8 8 8 7 5 5 5 6 8 10 11 13 13 13
13 13 17 22 21 20 19 18 17 16 15 14 13 12 11 11 10 10 10 10 10 9 9 9 9 9 9 9 9 9 9 9 8 7 7 8 9 10 12 14 16 16 16
14 12 15 21 20 19 18 17 17 16 15 14 13 12 11 11 11 11 10 11 11 11 11 11 11 10 10 10 10 10 10 11 9 9 9 10 11 12 13 15 19 19 18
11 10 10 15 18 19 18 17 16 15 14 13 12 12 12 11 11 11 11 12 12 12 12 12 12 12 12 12 12 12 12 12 11 9 9 9 12 14 14 15 18 21 21
9 9 8 11 13 14 15 16 16 15 14 13 13 13 12 12 13 13 13 13 13 14 14 14 14 14 14 14 14 14 14 14 12 11 11 12 14 15 16 17 18 21 23
11 9 8 8 9 11 12 14 16 15 15 14 13 14 14 11 11 11 13 14 15 16 16 16 16 16 15 15 15 16 15 12 12 12 12 14 16 17 18 18 19 21 23
14 14 10 9 8 9 11 11 11 12 12 13 12 11 11 10 11 12 12 16 17 17 18 18 18 17 16 13 14 15 12 13 13 12 14 17 18 18 19 20 20 21 23
11 12 11 10 8 8 6 6 7 8 9 11 12 12 11 10 9 11 10 12 14 15 14 14 14 13 13 12 12 12 13 13 12 13 15 18 19 19 19 20 21 21 22
8 10 9 10 9 8 6 4 5 5 6 8 11 12 10 7 7 8 9 10 10 11 10 11 10 12 13 14 14 13 13 12 12 13 15 19 20 20 20 20 21 21 22
9 10 9 9 9 8 7 5 5 5 7 9 9 11 12 8 9 8 7 9 10 11 10 9 9 9 10 11 12 12 12 13 14 14 13 18 20 20 21 21 21 21 21
10 9 8 8 8 7 8 7 5 5 7 8 9 12 13 12 8 8 9 8 8 11 11 9 9 9 9 8 10 10 10 12 12 14 15 16 19 21 21 22 22 21 21
9 8 8 8 8 8 9 8 6 6 7 7 9 13 14 14 12 9 9 10 9 11 11 9 8 7 7 7 9 10 9 10 11 12 14 14 15 17 19 21 22 22 22
8 8 8 9 9 10 9 7 5 6 6 7 10 13 15 16 16 10 11 11 10 9 7 8 7 6 7 7 7 8 8 8 10 11 13 13 13 14 16 19 20 21 22
9 8 7 6 7 9 9 7 7 6 7 7 9 10 13 15 16 11 11 11 9 8 9 9 7 7 7 7 7 7 8 8 9 11 11 12 13 14 15 16 19 20 22
8 7 7 6 6 6 5 5 4 5 6 5 5 7 9 9 11 7 9 10 9 8 9 8 9 9 8 8 9 9 8 9 8 10 12 11 12 15 15 15 15 16 20
7 7 7 7 6 4 3 2 3 3 4 4 4 5 6 6 7 6 6 7 7 8 9 9 8 9 8 7 6 7 8 10 11 11 11 11 12 12 12 13 13 14 14
8 8 7 6 5 5 3 2 1 2 3 3 4 5 6 6 6 5 6 6 6 6 8 8 7 6 6 7 6 5 5 5 7 10 10 10 11 9 10 11 11 12 13
6 7 6 6 5 4 3 1 1 1 2 3 3 4 4 6 7 6 7 6 6 6 7 8 8 8 8 7 8 7 5 7 4 4 7 8 8 7 8 8 9 10 12
6 5 4 5 4 3 3 2 2 2 3 4 3 4 7 7 7 7 7 7 7 6 7 8 8 7 8 8 6 8 8 5 5 4 3 4 6 7 8 7 7 7 7
4 3 4 4 4 3 3 4 3 4 4 4 4 6 6 6 7 7 7 7 7 7 8 9 8 8 8 9 7 5 7 7 8 7 5 3 3 4 5 5 5 4 4
3 3 4 5 5 4 4 5 5 5 5 5 6 6 6 6 6 7 8 8 8 8 9 9 8 9 9 9 8 7 6 5 5 7 8 5 4 2 2 2 2 2 1
Wind_Direction
167 164 164 160 155 150 143 139 137 134 133 134 135 136 136 137 138 138 138 136 135 132 129 125 123 122 123 122 121 120 122 125 128 130 129 128 129 129 127 125 126 127 128
153 161 164 161 157 153 149 146 143 141 140 140 140 140 141 142 143 142 141 142 142 140 137 135 133 132 132 131 130 128 130 133 137 140 139 137 137 140 141 138 138 140 137
148 160 163 162 159 156 155 153 150 148 147 146 146 145 146 147 147 148 148 149 149 148 147 146 147 146 145 143 141 139 139 142 148 151 146 138 145 152 160 156 154 152 148
149 158 162 164 162 161 160 160 158 156 155 154 153 153 153 154 155 156 157 159 161 161 161 162 163 164 163 162 160 157 156 158 163 163 153 166 177 173 174 172 168 166 162
148 156 165 166 166 166 166 166 165 163 162 162 163 163 164 166 168 170 172 175 178 179 180 180 181 182 183 184 184 183 184 186 191 189 186 205 223 212 196 186 183 182 177
153 159 170 169 171 172 172 172 172 171 171 171 173 175 177 180 184 188 191 195 198 201 202 202 201 201 203 207 208 208 209 212 215 218 223 233 238 239 226 211 201 197 193
158 163 174 173 175 177 177 177 177 178 179 181 183 187 191 195 200 205 208 211 214 217 219 220 221 221 222 224 228 230 231 233 229 227 236 242 246 247 242 229 219 211 205
162 164 177 178 180 182 183 183 183 185 186 189 193 198 203 209 215 219 223 226 228 231 232 234 236 237 238 240 241 242 243 244 246 238 238 242 248 250 248 241 229 220 214
159 161 174 181 185 188 190 191 191 193 195 198 203 209 215 221 227 232 236 239 240 241 244 245 247 248 249 249 249 249 250 250 250 246 248 247 249 252 254 252 238 224 219
159 167 170 176 181 186 193 199 200 202 204 208 213 220 226 232 237 241 244 248 251 252 253 254 255 257 256 255 255 255 256 258 256 253 252 252 253 254 255 256 247 232 224
177 181 178 177 179 182 189 202 205 209 212 215 221 227 232 236 244 250 252 253 255 258 260 260 261 261 262 261 260 260 261 258 257 258 257 256 257 257 257 257 252 240 231
188 191 191 189 185 183 195 204 207 210 213 216 219 227 233 233 237 247 253 257 259 261 263 263 262 262 263 261 261 262 259 258 259 261 261 261 260 261 260 258 255 248 238
190 192 197 198 195 194 202 204 210 213 215 219 221 224 229 236 241 247 250 256 260 263 264 264 263 259 254 251 252 252 253 257 259 261 263 264 263 263 263 262 259 255 248
181 196 197 199 200 205 207 215 220 226 228 230 231 230 228 236 241 243 246 248 249 252 254 256 255 254 253 252 250 251 252 252 254 256 261 264 264 265 266 266 265 263 257
186 194 195 195 202 207 210 219 226 235 240 243 245 241 234 237 243 242 245 245 245 245 246 249 250 250 250 253 253 251 251 251 252 252 257 263 266 267 269 270 270 270 264
192 193 188 192 200 206 215 220 230 239 245 251 250 248 242 240 244 245 247 244 243 242 243 243 245 251 254 256 259 257 253 254 251 251 253 260 264 265 267 269 269 267 264
187 183 186 193 193 206 218 225 228 233 237 244 251 252 246 241 243 243 247 247 244 240 241 243 248 253 258 259 261 264 261 256 255 255 255 255 259 263 263 265 266 264 261
170 177 189 201 198 208 217 224 230 238 239 243 248 251 250 245 242 242 245 247 242 236 233 239 243 250 253 253 258 264 264 261 258 257 256 254 253 256 258 258 259 260 260
161 166 179 196 203 210 216 221 228 234 241 245 247 251 254 253 246 238 243 248 242 235 234 236 230 226 237 244 252 259 258 257 257 258 255 254 252 252 254 256 255 255 257
148 158 169 182 200 203 207 220 235 246 252 252 253 258 264 265 262 248 247 250 245 242 239 232 228 223 223 226 238 248 248 249 252 253 257 257 255 253 252 253 254 255 254
142 159 179 187 195 180 177 196 222 250 263 270 270 275 285 287 285 269 265 264 254 246 244 235 229 229 228 217 227 251 255 249 252 253 251 251 253 253 254 253 252 253 254
167 175 185 192 188 187 180 179 197 237 269 275 289 303 306 312 308 299 280 277 268 259 254 245 234 231 229 208 213 230 256 263 243 244 243 245 249 252 254 253 251 248 248
192 193 188 192 193 194 179 125 39 354 329 316 310 307 310 315 310 304 298 289 279 266 262 253 241 236 240 228 214 215 223 237 247 250 240 242 242 243 248 252 253 252 248
224 216 204 200 199 195 166 171 197 236 268 270 284 291 302 305 305 305 301 296 286 274 266 262 250 239 240 244 228 222 228 221 224 258 249 241 242 245 248 253 256 254 252
239 223 219 210 213 202 186 196 211 238 250 278 293 298 304 307 305 304 302 299 291 281 273 267 259 246 239 240 233 221 229 231 226 235 255 253 255 252 252 256 257 259 268
251 223 213 212 224 214 205 207 213 237 260 285 300 307 309 308 305 304 305 300 294 285 277 269 260 251 245 241 236 224 216 215 215 222 237 242 249 262 274 291 283 281 303
Height
1508 1512 1515 1518 1521 1524 1527 1529 1531 1532 1534 1535 1536 1537 1538 1539 1540 1541 1541 1542 1543 1543 1544 1545 1545 1546 1547 1547 1547 1548 1548 1548 1549 1549 1549 1549 1550 1551 1551 1552 1552 1553 1553
1508 1511 1515 1518 1522 1525 1527 1530 1532 1533 1535 1536 1537 1539 1540 1541 1541 1542 1543 1544 1544 1545 1545 1546 1547 1547 1548 1548 1549 1549 1550 1550 1550 1550 1551 1551 1552 1552 1553 1553 1554 1554 1555
1509 1512 1515 1519 1523 1526 1528 1530 1532 1534 1536 1537 1539 1540 1541 1542 1543 1544 1544 1545 1546 1546 1546 1547 1548 1548 1549 1550 1550 1551 1551 1552 1552 1552 1552 1553 1553 1553 1554 1554 1555 1556 1556
1510 1513 1516 1520 1523 1526 1529 1531 1533 1535 1537 1538 1540 1541 1542 1543 1544 1545 1546 1546 1547 1547 1547 1548 1548 1549 1550 1550 1551 1552 1552 1553 1553 1553 1554 1554 1554 1554 1555 1555 1556 1556 1557
1512 1515 1518 1521 1524 1527 1530 1532 1534 1536 1537 1539 1540 1542 1543 1544 1545 1545 1546 1547 1547 1548 1548 1548 1549 1549 1550 1550 1551 1552 1552 1553 1553 1554 1554 1554 1555 1555 1555 1555 1556 1557 1558
1513 1516 1519 1522 1525 1528 1530 1532 1534 1536 1538 1539 1541 1542 1543 1544 1545 1545 1546 1547 1547 1548 1548 1549 1549 1549 1550 1550 1551 1551 1552 1552 1553 1553 1554 1554 1554 1555 1555 1555 1556 1556 1557
1513 1517 1520 1523 1526 1528 1531 1533 1535 1536 1538 1540 1541 1542 1543 1544 1544 1545 1545 1546 1546 1547 1548 1548 1548 1549 1549 1550 1550 1550 1551 1551 1551 1552 1552 1553 1553 1554 1554 1555 1555 1556 1556
1514 1517 1521 1524 1526 1529 1531 1533 1535 1537 1538 1540 1541 1542 1543 1543 1544 1544 1545 1545 1546 1546 1547 1547 1547 1548 1548 1548 1549 1549 1549 1549 1550 1550 1550 1551 1551 1552 1552 1553 1554 1554 1555
1515 1518 1521 1523 1526 1529 1531 1533 1535 1537 1539 1540 1541 1542 1542 1543 1543 1544 1544 1544 1545 1545 1546 1546 1546 1547 1547 1547 1548 1548 1548 1548 1548 1548 1548 1548 1549 1549 1550 1551 1552 1552 1553
1515 1517 1520 1523 1526 1528 1530 1533 1535 1536 1538 1539 1540 1541 1542 1542 1542 1543 1543 1543 1544 1544 1544 1544 1545 1545 1545 1546 1546 1546 1546 1546 1546 1545 1545 1546 1546 1546 1547 1548 1549 1550 1550
1514 1517 1519 1522 1524 1527 1529 1531 1533 1535 1536 1537 1538 1539 1540 1541 1541 1541 1542 1542 1542 1542 1542 1543 1543 1543 1543 1543 1543 1544 1543 1543 1543 1543 1542 1543 1543 1543 1544 1545 1546 1547 1548
1512 1515 1518 1521 1524 1526 1528 1530 1531 1533 1534 1535 1536 1537 1538 1539 1539 1539 1540 1540 1540 1540 1540 1540 1541 1541 1541 1541 1541 1541 1541 1541 1540 1540 1540 1540 1540 1540 1541 1541 1543 1544 1544
1513 1516 1518 1521 1524 1526 1527 1529 1530 1531 1532 1533 1534 1535 1536 1536 1537 1537 1537 1537 1537 1538 1538 1538 1538 1538 1538 1538 1538 1538 1538 1537 1537 1537 1537 1537 1537 1538 1538 1538 1539 1540 1541
1513 1516 1519 1521 1523 1525 1526 1527 1528 1529 1530 1531 1532 1532 1533 1533 1533 1533 1533 1534 1534 1534 1534 1535 1535 1535 1535 1535 1535 1535 1535 1534 1534 1534 1534 1534 1535 1535 1535 1535 1536 1536 1537
1513 1516 1518 1520 1522 1524 1525 1526 1527 1527 1528 1529 1529 1530 1530 1530 1530 1530 1529 1530 1530 1530 1530 1530 1531 1531 1532 1532 1532 1532 1531 1531 1531 1531 1531 1531 1531 1532 1532 1532 1532 1532 1533
1513 1516 1518 1520 1522 1523 1524 1524 1524 1525 1525 1526 1526 1526 1526 1526 1526 1526 1525 1525 1525 1525 1526 1526 1526 1527 1527 1528 1528 1527 1527 1527 1527 1527 1527 1527 1528 1527 1528 1528 1528 1528 1528
1513 1515 1517 1519 1520 1521 1522 1522 1521 1521 1522 1522 1522 1522 1521 1521 1521 1521 1520 1519 1519 1520 1520 1520 1521 1521 1521 1522 1522 1522 1522 1522 1522 1522 1522 1522 1522 1522 1522 1522 1522 1523 1523
1512 1514 1516 1517 1518 1519 1519 1519 1519 1519 1519 1518 1517 1517 1516 1516 1515 1514 1514 1513 1513 1513 1513 1514 1514 1514 1515 1515 1515 1516 1516 1516 1516 1516 1516 1516 1516 1516 1516 1516 1516 1517 1517
1512 1513 1515 1516 1517 1517 1517 1517 1516 1516 1515 1514 1513 1512 1511 1510 1509 1508 1507 1506 1506 1507 1506 1507 1507 1506 1507 1507 1507 1508 1508 1509 1509 1510 1510 1510 1509 1509 1509 1509 1509 1510 1510
1511 1513 1513 1514 1514 1514 1514 1514 1513 1513 1512 1511 1510 1508 1507 1505 1503 1502 1501 1500 1499 1499 1498 1499 1499 1499 1499 1499 1500 1500 1501 1501 1501 1502 1502 1502 1502 1502 1501 1501 1502 1502 1502
1509 1511 1512 1512 1512 1512 1512 1511 1511 1510 1509 1508 1506 1504 1502 1500 1498 1496 1495 1493 1492 1491 1491 1491 1491 1491 1491 1492 1493 1493 1493 1494 1494 1494 1494 1495 1494 1494 1494 1493 1493 1493 1494
1508 1509 1509 1510 1510 1510 1510 1509 1509 1507 1506 1504 1502 1499 1497 1495 1492 1490 1488 1487 1485 1484 1484 1483 1483 1483 1483 1484 1485 1485 1485 1486 1485 1486 1486 1486 1486 1486 1485 1485 1485 1485 1485
1506 1507 1508 1508 1508 1508 1508 1507 1506 1504 1502 1500 1498 1495 1492 1489 1487 1484 1482 1480 1479 1477 1476 1476 1476 1476 1476 1476 1477 1479 1479 1477 1477 1477 1478 1478 1478 1478 1477 1477 1477 1477 1477
1505 1505 1506 1506 1507 1506 1505 1504 1503 1501 1499 1496 1493 1490 1487 1484 1481 1479 1476 1474 1472 1471 1470 1469 1469 1469 1469 1468 1469 1470 1471 1471 1472 1470 1470 1470 1470 1470 1470 1470 1470 1470 1470
1503 1504 1504 1504 1504 1504 1503 1501 1500 1498 1495 1492 1489 1486 1483 1480 1476 1473 1470 1467 1465 1464 1463 1462 1461 1461 1461 1461 1462 1462 1463 1463 1464 1464 1463 1464 1464 1464 1464 1464 1464 1464 1465
1501 1502 1502 1502 1502 1501 1500 1498 1496 1494 1491 1488 1485 1482 1478 1474 1471 1468 1464 1461 1459 1457 1455 1454 1454 1453 1454 1454 1454 1455 1456 1456 1456 1457 1458 1458 1459 1459 1459 1459 1459 1459 1460